Terminal Aerodrome Forecast
Issued by NWS

Home | Current Version | Previous Version | Text Only | Print | Product List | Glossary On
Versions: 1 2 3 4 5 6 7 8 9 10 11 12 13 14 15 16 17 18 19 20 21 22 23
000
FTUS46 KSEW 300815 AAA
TAFHQM
TAF AMD
KHQM 300815Z 3008/0106 22006KT 2SM BR OVC004
     FM301700 24004KT P6SM OVC007
     FM302000 24012KT P6SM BKN015
      TEMPO 3022/0102 SCT015=

USA.gov is the U.S. government's official web portal to all federal, state and local government web resources and services.